Вернуться в каталог

DELTA 1 DEB

АктивенPO
NORAD 21914·DEBRIS·🇺🇸 United States

Запущен Jun 12, 1975 с Vandenberg Space Force Base

Loading…

Ближайшие Пролёты (ближайшие 24 часа)

TLE

СвежийSource: Space-Track

Эпоха: Sep 13, 2026, 11:03 UTC

1 21914U 75052JS  26256.46087752  .00000038  00000-0  39814-3 0  9995
2 21914  99.4471 251.1943 0631201 274.8143 247.0600 12.13890043537139

Отслеживайте DELTA 1 DEB в реальном времени с AllMySat

Download on the App Store